067  
ASUS44 KSHV 170110  
RWRSHV  
 
THE FOUR STATE AREA WEATHER ROUNDUP  
NATIONAL WEATHER SERVICE SHREVEPORT LA  
800 PM CDT FRI APR 16 2021  
 
NOTE: "FAIR" INDICATES FEW OR NO CLOUDS BELOW 12000 FEET  
WITH NO SIGNIFICANT WEATHER AND/OR S TO VISIBILITY
.  
 
!LAZ001-LAZ014-TXZ097-170200  
SHREVEPORT...MONROE...TEXARKANA RADIOS  
 
CITY SKY/WX TMP DP RH WIND PRES REMARKS
 
SHREVEPORT LGT RAIN 58 54 86 N6 29.85R  
MONROE LGT RAIN 57 55 93 E5 29.82F  
NATCHITOCHES RAIN 58 58 99 CALM 29.83R  
TEXARKANA LGT RAIN 54 52 93 N6 29.88R FOG  

 
 
!LAZ001-LAZ014-TXZ097-170200  
OTHER LOCATIONS...  
 
CITY SKY/WX TMP DP RH WIND PRES REMARKS
 
DOWNTOWN SHV CLOUDY 57 54 89 N3 29.85R  
BOSSIER CITY CLOUDY 56 54 93 NW5 29.84R  
RUSTON CLOUDY 55 52 92 CALM 29.86R  
LITTLE ROCK CLOUDY 53 49 86 CALM 29.90S  
EL DORADO CLOUDY 55 52 89 N5 29.85R  
JACKSON LGT RAIN 58 52 80 CALM 29.83R  
NEW ORLEANS LGT RAIN 67 61 81 NE7 29.80S  
HOUSTON DRIZZLE 69 66 90 NE8 29.77R FOG  
LUFKIN CLOUDY 61 61 100 CALM 29.83R  
TYLER CLOUDY 57 55 93 N5 29.87R FOG  
DAL FT WORTH CLOUDY 58 55 90 N10 29.88R  

 
 
!TXZ136-TXZ165-170200  
TYLER...LUFKIN RADIOS  
 
CITY SKY/WX TMP DP RH WIND PRES REMARKS
 
TYLER CLOUDY 57 55 93 N5 29.87R FOG  
GILMER DRIZZLE 54 53 97 N3 29.87R  
LONGVIEW CLOUDY 56 54 93 N5 29.86R  
LUFKIN CLOUDY 61 61 100 CALM 29.83R  

 
 
!TXZ136-TXZ165-170200  
OTHER LOCATIONS...  
 
CITY SKY/WX TMP DP RH WIND PRES REMARKS
 
NACOGDOCHES CLOUDY 59 58 96 CALM 29.84R  
BEAUMONT LGT RAIN 64 64 100 NE10G21 29.76R  
HOUSTON DRIZZLE 69 66 90 NE8 29.77R FOG  
COLLEGE STN CLOUDY 63 60 90 N12 29.83R  
AUSTIN CLOUDY 64 63 96 N13 29.83R  
DAL FT WORTH CLOUDY 58 55 90 N10 29.88R  
TEXARKANA LGT RAIN 54 52 93 N6 29.88R FOG  
SHREVEPORT LGT RAIN 58 54 86 N6 29.85R  
FORT POLK LGT RAIN 60 59 99 NW13 29.82R  
LAKE CHARLES LGT RAIN 65 63 93 NE15 29.78R FOG  

 
 
 
CLICK HERE TO GO TO PREVIOUS BULLETINS.

The Nexlab LA Page
The Nexlab TX Page
The Nexlab AR Page
The Nexlab OK Page Main Text Page